Regional Weather Roundup
Issued by NWS Newport/Morehead, NC

Current Version | Previous Version | Text Only | Print | Product List | Glossary On
Versions: 1 2 3 4 5 6 7 8 9 10 11 12 13 14 15 16 17 18 19 20 21 22 23 24 25 26 27 28 29 30 31 32 33 34 35 36 37 38 39 40 41 42 43 44 45 46 47 48 49 50
000 ASUS42 KMHX 191825 RWRMHX WEATHER ROUNDUP FOR EASTERN NORTH CAROLINA NATIONAL WEATHER SERVICE NEWPORT/MOREHEAD CITY NC 200 PM EDT MON APR 19 2021 NOTE: "FAIR" INDICATES FEW OR NO CLOUDS BELOW 12,000 FEET WITH NO SIGNIFICANT WEATHER AND/OR OBSTRUCTIONS TO VISIBILITY NCZ015>017-031-032-045>047-102-103-191900- NORTH COAST CITY SKY/WX TMP DP RH WIND PRES REMARKS EDENTON LGT RAIN 65 64 96 N12 29.81R ELIZABETH CITY PTSUNNY 70 50 49 SE16G24 29.76F KITTY HAWK DRIZZLE 60 58 90 CALM 29.76F MANTEO CLOUDY 63 58 86 E3 29.77F $$ NCZ045>047-081-094-103-104-191900- CENTRAL COAST CITY SKY/WX TMP DP RH WIND PRES REMARKS FRISCO MOSUNNY 76 56 49 E9 29.73F $$ NCZ095-097-098-100-101-191900- SOUTHERN COAST CITY SKY/WX TMP DP RH WIND PRES REMARKS PINEY ISLAND NOT AVBL BEAUFORT MOSUNNY 73 61 65 SW12 29.74F CAPE CARTERET CLOUDY 71 60 68 SW10 29.77R JACKSONVILLE PTSUNNY 73 63 70 S3 29.75F WILMINGTON MOSUNNY 80 52 37 W16G24 29.75S $$ NCZ011>013-027>030-043-044-078>080-089-090>093-098-191900- COASTAL PLAIN CITY SKY/WX TMP DP RH WIND PRES REMARKS AHOSKIE CLOUDY 55 50 83 N14G25 29.84F ROCKY MOUNT CLOUDY 56 48 74 N13 29.87R GREENVILLE CLOUDY 61 50 67 N9G24 29.86R WASHINGTON PTSUNNY 71 54 56 NW13 29.78S GOLDSBORO CLOUDY 61 50 67 N16G23 29.82R KINSTON CLOUDY 64 54 68 NW18G25 29.83R NEW BERN LGT RAIN 64 60 87 NE10 29.77S HAVELOCK MOSUNNY 76 57 51 W13G18 29.76S THUNDER KENANSVILLE CLOUDY 64 54 68 N14G21 29.83R RICHLANDS MOSUNNY 75 59 57 NW12G20 29.77S CLINTON PTSUNNY 64 52 63 N13G20 29.85S ELIZABETHTOWN PTSUNNY 68 52 57 NW15G22 29.84R WHITEVILLE MOSUNNY 70 53 54 N12G17 29.83 $$ AMZ130-135-150-152-154-156-158-170-250-252-270-ANZ085-086-088-633-658-670-191900- MARINE OBSERVATIONS STATION/POSITION TIME TEMP WIND PRES WAVE SWELL AIR SEA DIR/SP/G HT/PER HT/PER (UTC) (F) (DEG/KT/KT) (MB) (FT/S) (FT/S) 64 E VA BEACH 1810 53 160/ 8/ 17 1007.2 64 E VA BEACH 1730 59 53 N/A 3/11 2/11 DUCK PIER 1736 59 CALM / 2 1008.5 2 E DUCK 1756 58 N/A 2/11 2/11 10 NE DUCK 1656 56 N/A 2/11 2/11 OREGON INLET 1736 65 60 180/ 6/ 7 1007.9 13E OREGON INLT 1756 59 N/A 3/11 3/11 HATTERAS CG 1736 70 65 80/ 7/ 11 1007.1 DIAMOND BUOY NOT AVBL CAPE LOOKOUT 1800 72 200/ 10/ 12 1007.1 BEAUFORT LAB 1736 69 67 190/ 9/ 13 1007.8 30 SE NEW RVR IN NOT AVBL 30 SE NEW RVR IN 1756 67 N/A 2/ 5 27 SE WRIGHTSVLE 1808 68 67 220/ 12/ 16 1007.3 5 SE WRIGHTSVLE 1708 66 65 190/ 12/ 14 1008.0 27 SE WRIGHTSVL 1808 68 67 220/ 12/ 16 1007.3 FRYING PAN BUOY 1810 69 250/ 10/ 14 1007.6 225 S CAPE HAT NOT AVBL 41 SE CHARLESTON NOT AVBL $$

USA.gov is the U.S. government's official web portal to all federal, state and local government web resources and services.